Location: Moscow
(55.7500°N, 37.5830°E)
Time: 19:21:51
(UTC+03:00)

N. Korean satellite - Pass Details

Date: 28 February 2021
Orbit: 452 x 499 km, 97.2° (Epoch: 20 April)

Event Time Altitude Azimuth Distance (km) Brightness Sun altitude
Rises 06:32:48 0° 11° (N) 2,506 10.3 -7.9°
Reaches altitude 10° 06:34:51 10° 7° (N) 1,632 9.3 -7.6°
Maximum altitude 06:38:17 56° 289° (WNW) 569 6.6 -7.1°
Drops below altitude 10° 06:41:45 10° 211° (SSW) 1,644 9.0 -6.6°
Sets 06:43:50 0° 207° (SSW) 2,527 10.0 -6.3°
